Lapse_Rate
6.6 6.5 6.4 6.3 6.2 6.1 6.1 6.1 6.1 6.1 6.0 5.8 5.8 6.0 6.0 6.1 6.0 5.9 5.8 5.8 5.9 5.9 6.0 6.2 6.0 6.0 6.0 5.9 5.4 5.8 5.2 5.2 5.6 5.8 5.1 5.5 5.7 5.9 5.8 5.7 5.6 5.5 5.5
6.6 6.7 6.6 6.5 6.5 6.4 6.3 6.2 6.2 6.2 6.2 6.0 6.1 6.1 6.1 6.1 6.0 6.0 5.9 5.9 5.8 5.8 6.0 6.0 6.1 6.0 6.0 6.1 5.9 5.7 5.5 5.6 5.7 5.8 5.7 5.2 5.4 5.8 5.8 5.7 5.6 5.5 5.5
6.5 6.4 6.4 6.3 6.2 6.1 6.1 6.0 6.0 6.1 6.0 6.0 6.0 5.9 5.9 6.0 6.0 6.0 5.9 5.8 5.8 6.0 5.8 5.9 6.1 6.3 6.4 6.2 6.2 5.9 5.7 5.7 6.2 5.8 6.0 6.0 5.8 5.8 5.8 5.7 5.5 5.5 5.5
6.8 6.7 6.6 6.5 6.4 6.2 6.1 6.0 5.9 5.9 5.9 5.8 5.8 5.8 5.8 5.7 5.7 5.8 5.9 5.9 6.0 5.9 5.9 5.9 5.9 6.1 6.1 6.2 6.3 6.0 6.0 5.6 5.8 6.0 5.6 5.6 5.7 5.8 5.7 5.8 5.7 5.6 5.6
6.8 6.7 6.7 6.5 6.4 6.2 6.0 5.8 5.6 5.6 5.4 5.3 5.4 5.6 5.8 5.8 5.7 5.6 5.7 5.8 5.7 5.9 6.1 6.0 6.0 6.1 6.0 6.2 6.3 6.3 6.1 6.2 5.9 5.9 6.2 5.9 6.0 5.7 5.8 5.8 5.9 5.7 5.7
6.8 6.7 6.6 6.5 6.3 6.2 6.0 5.6 5.6 5.5 5.4 5.3 5.2 5.3 5.4 5.5 5.7 5.7 5.7 5.7 5.7 5.8 5.9 6.3 6.0 6.1 6.2 6.2 6.2 6.2 6.2 6.1 6.1 5.9 6.1 6.1 6.0 6.0 5.8 5.9 5.8 5.7 5.8
7.1 6.9 6.6 6.3 6.3 6.3 6.2 5.9 5.6 5.5 5.4 5.4 5.4 5.3 5.6 5.6 5.6 5.8 6.0 5.6 5.7 5.9 5.9 6.2 6.4 6.2 6.3 6.2 6.2 6.1 6.1 6.1 6.1 5.9 5.9 6.0 5.8 5.8 5.8 5.8 5.8 5.6 5.8
7.4 7.1 6.9 6.8 6.5 6.5 6.3 6.1 6.0 5.7 5.5 5.4 5.4 5.4 5.4 5.6 5.6 5.6 6.0 5.8 5.7 5.8 6.0 6.1 6.3 6.3 6.1 6.2 6.2 6.2 6.1 6.1 5.9 5.8 5.8 5.7 5.7 5.8 5.8 5.7 5.7 5.7 5.7
7.3 7.2 7.1 6.8 6.7 6.7 6.5 6.2 6.0 6.0 5.9 5.7 5.4 5.3 5.3 5.5 5.5 5.7 5.8 5.7 5.7 6.0 6.1 6.2 6.2 6.1 6.0 5.9 6.0 6.1 5.9 5.7 5.9 6.0 5.9 5.8 5.7 5.8 5.7 6.0 5.9 5.7 5.8
7.5 7.3 7.1 6.9 6.6 6.5 6.4 6.2 6.1 5.8 5.7 5.6 5.6 5.5 5.5 5.6 5.7 5.7 5.8 5.8 5.5 5.7 6.1 6.1 6.2 6.2 6.2 5.9 6.0 5.8 5.7 6.0 5.7 5.7 5.7 5.8 5.8 5.8 5.9 5.7 5.7 5.8 5.7
7.7 7.6 7.3 6.9 6.6 6.5 6.3 6.0 5.8 5.7 5.6 5.5 5.4 5.7 5.9 6.0 5.9 5.8 5.9 5.8 5.7 5.5 5.6 5.8 6.0 5.9 5.9 6.0 5.9 6.0 6.0 5.8 5.4 5.6 5.8 5.7 5.7 6.0 6.0 5.9 5.8 5.6 5.5
7.5 7.3 7.1 6.8 6.5 6.4 6.2 6.0 5.7 5.6 5.5 5.7 5.7 5.7 5.7 5.7 5.8 5.7 5.8 6.1 5.9 5.7 5.6 5.6 5.6 6.1 6.3 6.0 5.8 5.9 5.9 6.0 5.7 5.4 5.2 5.7 5.8 5.7 5.7 5.7 5.7 5.6 5.5
7.6 7.3 7.2 6.9 6.6 6.4 6.1 5.8 5.6 5.4 5.3 5.2 5.2 5.3 5.5 5.6 5.6 5.7 5.8 5.7 5.8 5.8 5.8 5.7 5.5 5.6 6.0 5.9 5.6 5.7 5.7 5.6 5.4 4.8 4.7 5.2 5.7 5.8 5.6 5.3 5.4 5.4 5.5
7.7 7.5 7.2 7.0 6.8 6.4 6.0 5.5 5.3 5.3 5.2 5.2 5.5 5.3 5.3 5.4 5.4 5.3 5.4 5.4 5.3 5.4 5.7 5.8 5.7 5.5 5.5 5.4 5.5 5.6 5.8 5.5 5.6 5.6 5.3 5.0 5.7 5.8 5.3 5.2 5.2 5.1 5.1
7.6 7.3 7.1 6.9 6.4 6.2 5.5 5.4 5.4 5.2 5.3 5.5 5.6 5.6 5.7 5.2 5.0 5.0 4.9 4.8 4.8 5.0 5.4 5.5 5.8 5.8 5.8 5.5 5.3 5.3 5.5 5.4 5.4 5.5 5.5 5.3 5.0 4.8 5.0 5.2 5.1 5.1 5.2
7.4 7.2 7.0 6.4 6.2 6.0 5.6 5.4 5.3 5.3 5.4 5.4 5.6 5.7 5.7 5.6 5.1 4.8 4.5 4.2 4.0 4.1 4.5 4.8 5.6 5.8 5.8 5.7 5.4 5.2 5.1 5.2 5.2 5.2 5.3 5.6 5.2 4.9 4.9 4.8 5.1 4.9 5.0
7.1 7.2 6.6 6.0 5.8 5.6 5.4 5.0 5.5 6.0 5.5 5.5 5.6 5.7 5.5 5.0 5.1 5.1 4.9 4.5 4.1 4.2 4.5 5.0 5.4 5.8 5.9 5.6 5.2 5.1 5.2 5.1 5.2 5.4 5.3 5.2 5.0 4.9 5.1 4.9 4.9 4.9 4.8
7.0 6.8 5.9 6.1 5.8 5.5 5.1 5.3 5.8 5.9 5.3 5.3 5.3 5.2 4.8 4.9 5.0 5.1 4.9 4.9 4.8 4.8 4.8 5.0 5.3 5.5 5.5 5.6 5.5 5.5 5.4 5.2 5.4 5.0 5.4 5.2 4.8 5.0 4.8 5.3 5.2 4.9 4.4
6.8 6.4 6.4 5.9 5.5 5.2 5.2 5.5 5.4 5.3 5.5 5.4 5.2 4.7 4.3 4.1 4.6 4.9 4.9 4.9 5.0 5.1 4.9 5.0 5.1 5.3 5.4 5.5 5.5 5.5 5.4 5.3 5.3 5.0 5.1 5.2 5.2 5.1 4.9 4.9 4.5 4.5 4.4
6.6 6.5 6.2 5.7 5.5 5.3 4.8 4.6 4.8 5.2 5.5 5.5 5.3 4.5 4.1 4.1 4.2 4.5 4.7 4.5 4.7 5.1 5.2 5.5 5.3 5.4 5.6 5.4 5.3 5.2 5.3 5.2 5.2 5.1 5.1 4.8 4.7 4.5 4.4 4.4 4.5 4.3 4.2
6.6 6.6 6.0 5.6 5.7 5.3 4.9 5.0 4.9 4.8 5.0 5.5 5.7 5.1 4.7 5.0 5.3 4.8 4.8 4.5 4.5 4.6 4.6 4.6 4.7 4.9 5.2 5.2 4.9 4.8 4.7 4.5 4.4 4.3 4.4 4.4 4.1 4.0 4.2 4.6 4.6 4.7 4.3
5.4 5.8 5.9 5.8 5.3 5.2 4.9 5.4 4.9 4.8 4.6 4.7 5.2 5.5 5.7 5.9 6.0 5.2 4.9 4.6 4.8 4.5 4.7 4.9 4.8 4.7 4.8 4.8 4.2 4.5 4.4 4.3 4.6 4.4 4.5 5.0 4.7 4.9 4.9 4.7 4.8 5.1 5.3
5.2 5.4 5.9 5.4 5.4 5.6 5.7 5.7 4.9 4.8 4.9 4.7 5.2 5.8 5.5 5.4 5.2 5.6 6.2 6.0 5.8 6.5 5.7 6.0 6.0 5.8 5.7 5.5 5.3 5.3 5.2 5.2 5.3 5.7 5.3 4.9 4.9 5.6 5.8 5.8 5.6 5.5 5.2
5.6 5.6 5.6 5.6 5.5 5.4 5.3 5.5 5.5 5.7 5.6 5.8 5.7 5.7 5.6 5.4 5.7 5.8 5.5 5.8 6.3 6.3 5.9 5.9 5.9 5.7 5.7 5.7 5.5 5.5 5.4 5.6 5.5 5.5 5.7 5.6 5.4 5.3 5.5 5.7 5.6 5.3 5.3
5.6 5.8 5.8 5.7 5.7 5.5 5.4 5.3 5.3 5.7 5.9 5.8 6.0 6.1 5.9 5.8 5.6 5.6 6.2 6.4 6.1 5.7 6.1 5.9 6.0 5.9 6.0 5.9 6.0 5.8 5.7 5.6 5.5 5.5 5.5 5.4 5.4 5.5 5.5 5.5 5.4 5.3 5.2
6.0 5.7 5.8 5.9 5.8 5.6 5.5 5.4 5.3 5.3 5.3 5.4 5.4 5.4 5.6 6.1 6.2 6.4 6.2 6.1 5.9 6.2 6.2 6.0 6.0 6.1 6.1 6.0 5.9 6.0 6.0 5.8 5.7 5.8 5.9 5.7 5.6 5.5 5.5 5.4 5.3 5.2 5.2
Wind_Speed
12 14 12 12 12 10 9 7 5 4 3 4 3 6 6 5 5 5 6 8 4 5 6 3 5 6 5 2 6 5 3 3 5 2 6 9 6 9 11 18 15 14 12
11 9 12 10 10 11 11 10 8 7 6 6 6 6 6 6 7 7 6 8 5 5 6 6 5 6 6 4 3 5 2 3 4 4 4 9 8 7 9 10 11 14 11
10 11 11 12 11 11 11 12 10 8 10 9 8 9 9 9 9 9 9 9 8 6 8 7 8 7 5 3 5 6 4 2 3 4 4 3 8 7 7 8 8 12 11
11 12 11 11 12 11 10 8 11 10 8 9 8 8 10 10 9 8 8 8 9 8 8 8 9 7 8 5 4 5 5 2 4 2 4 5 3 6 6 8 5 5 5
6 8 9 10 9 9 7 7 8 9 9 8 8 10 10 9 9 9 8 7 7 7 7 7 8 10 11 10 5 5 6 4 4 7 4 3 5 4 7 4 4 5 3
10 8 7 7 9 10 9 8 6 7 8 8 10 10 10 9 12 13 10 9 9 7 9 7 8 7 7 9 9 6 2 5 5 3 2 4 7 6 6 7 7 4 3
7 7 6 7 6 6 6 7 7 8 8 8 9 9 11 11 12 12 9 8 9 9 7 6 7 9 9 9 9 7 7 7 7 3 5 5 5 9 9 10 8 6 4
9 8 7 7 7 7 7 7 7 7 8 8 10 10 11 10 12 13 10 8 9 11 8 6 7 9 10 7 7 7 8 7 7 8 7 6 6 8 13 9 9 5 8
8 7 6 6 7 7 8 7 4 2 4 6 7 9 10 10 11 9 6 7 9 12 11 10 9 7 11 9 8 8 11 8 3 4 4 4 1 16 16 10 7 9 3
9 8 5 5 4 3 4 5 2 3 5 5 7 8 10 8 9 10 9 7 8 8 10 12 13 13 12 10 7 9 11 9 6 5 3 4 4 8 27 14 12 10 4
9 8 6 4 2 3 3 4 4 5 5 7 8 9 11 9 9 10 12 7 7 7 9 7 9 15 15 13 11 7 9 9 8 7 6 6 6 7 8 8 12 10 8
7 6 5 4 2 4 4 3 5 5 6 7 8 8 7 8 10 12 14 15 10 7 9 7 6 12 15 12 8 11 3 3 5 5 6 5 6 4 4 2 10 6 9
7 6 6 3 3 3 2 2 2 4 5 6 6 7 8 7 7 6 5 9 13 6 7 2 5 6 8 5 9 10 9 4 4 7 9 8 7 7 7 5 9 13 11
7 7 5 5 5 3 5 4 5 6 6 7 7 6 6 7 7 5 5 3 7 5 6 7 6 2 2 2 2 4 4 5 6 9 10 3 5 6 5 4 4 6 5
7 7 7 6 5 6 4 4 4 4 2 4 5 6 7 7 3 5 5 5 3 4 5 3 3 4 3 3 3 3 4 5 7 5 6 6 5 5 4 5 6 7 6
7 5 5 6 5 3 4 5 7 6 7 7 8 6 5 10 11 12 10 8 8 5 2 2 3 5 6 5 5 4 4 5 3 3 5 7 7 7 7 7 5 7 10
5 4 4 2 3 2 1 0 5 5 8 7 7 8 11 12 11 10 9 8 6 3 3 3 3 3 3 3 3 3 2 2 3 3 5 7 8 8 11 9 6 6 6
4 6 2 3 3 2 2 3 3 2 2 4 5 6 9 7 9 8 7 1 1 1 1 1 0 1 1 2 3 3 3 4 3 4 4 3 3 8 8 6 8 9 7
4 3 3 1 3 2 4 5 5 3 3 4 3 4 8 10 8 8 10 4 3 4 3 3 3 2 3 3 3 3 5 5 6 7 7 8 8 7 8 7 5 7 8
3 5 2 4 4 4 4 3 5 4 4 3 4 3 1 3 3 4 4 4 3 3 4 3 4 4 4 4 4 4 6 6 6 7 7 7 7 7 7 8 6 7 6
7 7 8 5 4 5 5 2 5 5 5 5 5 5 6 2 2 1 2 3 1 3 3 3 4 5 5 5 5 5 6 6 6 5 6 6 6 6 6 7 9 9 7
9 10 8 8 5 3 1 4 4 4 2 7 7 7 9 5 6 4 3 3 4 3 4 4 4 4 4 5 5 6 6 5 6 5 5 7 8 8 8 6 4 5 4
6 6 4 5 6 5 4 4 3 6 1 1 7 7 6 6 4 3 5 5 6 7 7 7 6 6 6 7 8 5 5 6 5 5 6 5 6 4 4 4 4 4 4
9 11 11 7 6 8 5 4 4 1 2 3 2 3 2 3 4 3 1 2 4 5 6 5 6 9 7 6 7 9 11 10 13 10 6 4 4 4 3 3 5 6 5
10 6 11 8 8 7 6 6 5 4 4 3 3 4 3 3 3 2 6 6 4 3 4 4 4 5 11 12 11 14 17 20 16 13 9 7 6 7 6 6 5 6 9
9 10 8 6 8 8 6 6 5 5 5 7 7 6 7 6 6 6 4 3 4 6 6 4 6 7 9 12 12 9 16 28 24 22 14 7 8 8 7 9 11 8 9
Wind_Direction
202 185 198 196 202 213 236 250 234 255 274 302 240 225 209 226 249 225 242 279 273 248 277 271 257 288 288 132 263 328 167 145 172 48 61 109 110 126 116 120 124 107 90
196 196 193 199 212 200 216 229 231 224 227 220 235 257 241 218 220 229 233 257 257 245 261 274 238 253 272 293 290 282 134 121 125 129 153 208 139 150 135 130 112 102 97
192 194 196 199 207 220 214 215 222 221 214 224 217 222 244 228 237 219 218 241 254 227 234 233 250 255 260 266 306 315 349 262 159 136 179 132 145 156 108 108 112 116 115
187 191 200 197 206 211 225 215 213 222 230 223 223 232 226 249 252 240 235 227 240 247 243 223 236 228 240 216 249 267 290 285 286 119 144 156 152 129 125 130 127 140 152
202 192 197 195 198 207 221 218 216 212 221 229 226 233 239 235 241 240 244 243 257 241 250 244 246 223 220 217 207 223 243 240 258 245 170 143 157 151 164 150 130 142 81
198 208 199 189 194 206 210 223 235 224 220 226 228 234 240 242 241 231 227 228 234 245 240 248 257 271 188 180 202 198 232 219 241 263 231 181 184 170 167 165 145 144 156
194 203 202 207 212 213 217 221 226 238 243 240 241 242 243 243 254 259 237 247 234 232 235 236 254 256 212 198 203 209 217 219 218 259 217 207 193 181 167 170 170 165 153
193 200 200 193 204 215 218 222 228 234 242 247 253 252 252 250 238 252 219 229 238 242 230 233 228 242 262 246 211 214 223 225 220 225 226 232 207 187 173 175 160 110 100
187 197 200 194 205 211 214 219 229 291 276 269 266 263 259 258 243 248 194 230 237 243 239 230 230 238 245 231 232 235 243 228 98 83 38 104 162 188 148 129 144 144 128
185 183 134 77 28 359 18 12 16 350 322 307 294 282 272 267 251 231 202 228 234 247 241 231 227 226 229 221 213 228 242 236 165 195 193 243 176 134 153 167 161 169 133
103 97 84 96 82 8 1 355 326 307 293 284 277 277 279 262 265 210 204 232 230 247 251 235 232 220 222 220 204 229 227 245 230 182 202 200 183 152 181 176 176 173 164
92 108 108 98 39 45 28 359 346 318 302 297 292 292 276 274 254 226 214 215 232 244 255 268 313 225 211 214 205 224 217 230 223 222 213 191 152 143 143 103 159 152 180
132 124 122 121 122 134 115 58 325 12 355 331 317 303 302 310 310 10 269 251 235 243 264 40 9 345 266 208 215 201 178 181 196 230 230 205 187 153 122 97 77 86 80
131 139 141 144 129 91 73 40 52 31 351 332 320 311 315 316 308 351 336 242 241 262 261 268 274 269 214 259 159 213 220 198 219 227 224 143 132 149 157 144 133 129 113
152 145 150 142 185 143 133 65 83 76 55 350 338 327 308 298 317 327 299 311 329 334 301 237 207 207 190 201 235 209 225 223 217 210 161 159 158 168 170 162 153 150 142
150 170 182 174 186 125 114 130 46 98 174 188 245 234 300 279 300 306 294 283 284 292 264 231 229 227 226 207 202 213 208 208 189 185 177 170 165 164 160 149 158 153 146
221 136 157 210 101 131 121 43 165 210 233 220 242 270 236 259 295 309 301 278 274 192 228 224 220 212 204 197 200 193 204 189 137 177 177 172 162 155 149 145 137 129 134
143 88 158 145 148 133 200 244 138 111 59 66 53 346 312 342 343 345 341 335 11 280 248 62 69 160 170 162 146 135 133 122 112 109 98 97 132 146 132 132 136 130 130
213 181 193 168 252 231 236 221 170 162 123 106 86 40 343 347 354 14 25 40 45 36 26 40 45 67 84 95 111 123 128 132 134 127 126 122 117 108 99 94 83 110 121
156 105 261 249 222 228 242 230 150 179 168 143 119 171 216 329 349 33 23 38 54 57 50 44 56 66 81 79 73 95 111 109 110 110 107 106 104 116 122 129 135 145 168
196 172 211 239 229 254 233 221 156 225 180 188 154 210 193 214 223 99 128 99 76 93 93 92 86 94 86 88 85 93 91 92 92 101 102 112 123 132 150 173 175 188 200
172 183 185 213 207 120 68 322 251 239 270 165 170 199 202 238 213 182 218 172 149 192 143 125 132 121 124 120 133 132 129 133 142 140 144 159 172 190 194 192 175 165 156
226 143 238 231 161 173 205 267 291 298 348 198 174 175 204 235 222 169 162 182 181 189 181 165 168 162 162 168 175 174 163 163 179 182 194 208 201 210 166 150 155 160 180
265 183 194 218 162 197 176 232 243 261 23 301 337 352 94 217 192 195 203 132 167 183 186 164 173 179 169 184 188 178 189 180 181 203 206 195 200 190 177 160 170 186 201
258 251 191 202 174 214 190 225 197 179 201 255 235 178 212 227 285 236 183 200 172 194 187 181 185 194 175 188 184 197 193 186 191 199 199 206 216 206 213 203 209 199 207
227 248 245 220 184 206 182 220 201 193 195 199 207 197 196 193 204 210 210 223 193 185 190 187 205 218 195 195 211 231 193 188 197 200 195 203 211 221 216 218 216 223 224